Presure
315 333 365 318 294 266 274 271 273 257 250 241 232 239 226 216 212 201 198 203 188 200 187 184 175 176 185 183 190 181 169 152 161 174 176 170 156 169 148 179 163 135 168 103 172
314 331 328 350 309 279 286 254 280 269 255 247 242 230 240 233 218 213 204 201 201 199 201 201 205 178 205 187 178 173 181 167 171 175 193 140 175 160 159 161 160 167 173 149 169
322 308 323 322 299 298 278 270 263 277 263 253 241 237 233 231 220 219 215 204 201 203 196 199 198 194 198 197 211 200 197 204 195 203 176 124 172 168 185 210 168 169 171 171 178
343 317 309 310 315 318 288 275 264 288 273 258 243 241 246 229 231 215 219 224 209 201 191 202 200 201 202 199 193 206 189 197 208 200 198 199 213 199 210 174 201 200 93 212 206
336 337 302 295 309 304 323 270 269 267 277 267 258 240 238 235 226 228 210 227 213 217 208 202 211 186 209 219 205 199 196 193 199 199 201 208 200 204 71 196 202 205 196 128 212
330 324 325 305 289 302 296 296 293 278 278 272 265 249 240 237 235 238 223 213 216 218 212 217 208 205 196 208 229 221 226 196 212 199 215 205 211 213 219 231 143 209 202 173 195
330 336 321 299 311 295 286 292 294 308 284 262 262 265 243 248 226 236 237 223 216 213 215 211 210 203 211 198 200 184 200 195 198 234 175 232 228 226 230 229 213 207 162 188 188
326 292 283 292 257 296 296 270 289 282 309 284 266 251 259 250 234 240 232 236 211 223 211 214 212 204 204 201 200 198 198 198 207 198 200 208 210 238 234 195 110 210 206 184 194
322 281 273 267 270 277 284 294 284 286 280 320 290 261 259 260 247 237 237 239 239 217 220 213 212 210 203 198 200 202 204 203 206 201 205 209 206 221 224 221 215 214 205 199 205
306 291 311 552 345 283 278 268 269 277 281 289 319 276 259 256 261 257 246 236 233 241 220 215 212 210 208 206 208 209 211 208 197 203 209 203 193 201 212 212 218 214 206 197 207
308 430 544 520 472 455 351 281 269 278 286 284 294 311 291 265 262 263 264 260 248 235 226 227 210 213 214 217 204 209 210 216 212 198 205 199 190 198 203 210 212 215 218 208 190
382 568 570 534 557 454 445 298 278 263 281 269 290 294 301 306 272 284 285 276 267 231 235 224 217 210 213 204 204 211 207 213 213 192 204 194 193 198 190 207 194 208 211 213 218
572 535 494 490 514 486 457 470 287 267 264 266 293 283 284 282 281 284 283 279 270 262 233 221 217 211 210 209 207 209 211 213 215 215 210 185 199 204 201 191 205 218 178 217 214
494 507 480 470 519 474 450 500 297 275 253 268 286 279 276 266 265 266 267 257 248 240 240 227 213 211 211 207 208 218 219 215 221 223 220 219 220 196 202 196 190 200 202 210 214
483 455 473 479 478 452 443 397 302 271 259 258 283 276 265 261 253 252 250 257 236 232 228 231 234 226 222 221 221 217 216 216 221 221 218 218 223 225 208 193 193 204 224 229 224
462 427 454 462 464 440 433 342 302 268 255 275 285 269 264 252 251 243 252 251 248 230 230 228 220 228 225 219 226 222 222 220 224 223 217 215 213 172 201 199 202 231 234 226 223
420 408 428 445 453 443 355 326 298 267 268 246 286 262 265 252 249 242 237 238 237 235 239 238 237 236 238 234 233 235 231 227 228 228 217 213 218 143 154 176 250 238 140 132 216
408 427 421 429 445 473 353 328 296 270 263 248 282 269 259 255 246 242 241 240 241 239 239 235 233 228 227 230 229 230 229 223 220 219 221 218 238 225 237 258 254 243 235 247 237
426 431 418 435 472 493 367 319 281 267 253 235 278 270 257 256 246 248 239 239 236 236 233 240 234 227 226 225 221 222 220 222 220 225 254 250 244 223 212 66 244 252 236 254 261
462 432 421 452 484 434 345 308 268 252 247 236 276 269 252 247 238 243 238 243 231 239 223 215 269 264 260 258 256 254 251 251 256 257 261 259 240 230 233 110 229 172 206 241 284
431 413 459 482 519 452 324 296 265 253 249 230 276 262 254 245 245 241 248 239 234 216 275 265 258 254 250 251 251 249 252 253 257 255 251 219 204 211 102 85 79 235 273 268 153
428 438 428 459 458 450 326 293 267 246 233 238 272 264 254 252 249 243 239 224 214 275 267 259 255 253 256 253 252 249 246 249 246 202 204 204 219 237 247 223 260 265 210 285 92
416 439 487 477 395 399 324 290 268 248 241 238 251 262 258 249 244 246 225 219 270 273 264 260 255 256 256 254 243 237 200 201 196 210 219 237 240 240 264 257 254 289 236 278 309
415 432 463 450 380 331 308 287 263 250 247 240 240 266 259 256 238 237 221 254 262 261 258 255 253 253 243 223 199 197 199 205 215 238 285 281 265 265 265 261 257 259 268 281 226
463 456 455 403 373 322 305 186 260 254 247 246 239 267 258 258 235 220 216 211 226 249 238 228 218 212 217 212 215 202 215 215 262 242 240 256 261 255 247 244 248 258 258 279 354
450 410 449 372 147 312 292 279 262 251 250 243 237 259 259 251 238 220 219 219 218 218 213 216 218 213 218 219 221 222 215 228 242 258 254 248 270 248 251 249 243 260 256 268 388
422 374 364 384 350 309 296 280 257 251 247 244 239 235 262 248 236 222 219 220 219 218 217 217 216 213 215 204 224 215 221 247 236 235 253 238 239 232 242 247 248 226 253 248 279
Wind_Speed
35 34 30 64 66 61 71 71 79 86 88 89 88 90 88 89 88 89 90 91 89 92 106 105 100 93 101 94 102 100 86 86 93 93 94 83 79 80 80 90 84 70 90 45 88
41 32 37 43 67 67 72 63 73 80 89 92 92 88 92 89 90 92 92 89 90 90 88 92 91 103 88 105 102 93 100 95 93 94 105 72 89 80 82 85 84 87 89 80 84
39 39 34 40 54 69 72 69 66 79 83 91 90 92 91 90 88 93 92 91 92 91 92 90 90 96 92 91 81 85 82 85 98 91 95 52 89 83 92 77 90 85 85 88 92
38 41 40 39 45 58 73 75 70 75 84 87 91 91 94 91 91 90 90 91 92 92 85 91 90 89 89 90 94 80 94 84 80 90 91 88 77 86 75 91 84 87 36 79 83
40 40 45 47 44 50 52 68 74 69 81 84 90 90 91 92 92 95 86 88 87 90 90 90 91 82 87 86 84 83 86 83 80 81 85 81 86 82 16 86 84 82 86 55 73
46 45 43 47 50 49 54 57 67 79 79 85 85 91 94 92 94 95 93 88 85 89 88 87 87 85 82 78 78 80 78 78 76 82 82 83 82 75 71 72 57 77 78 62 74
52 51 48 40 48 53 51 57 58 64 82 79 82 88 92 93 88 93 94 90 88 86 87 86 83 83 82 76 74 81 76 77 75 66 81 67 70 71 74 69 66 70 47 72 72
47 46 48 45 40 47 56 51 61 61 59 86 83 80 89 93 88 93 88 93 83 90 83 86 85 81 81 77 78 76 74 74 72 75 73 70 68 63 66 53 39 67 69 74 73
48 51 57 59 61 53 54 56 59 62 63 53 79 82 85 89 94 90 87 89 90 86 89 86 86 84 83 80 76 76 76 74 72 71 68 68 65 61 62 64 64 65 71 73 75
63 64 68 41 72 69 64 58 60 61 63 60 51 83 81 82 88 92 93 88 85 88 87 89 87 86 83 83 83 77 76 74 73 72 69 67 67 69 63 64 66 68 70 64 73
74 72 56 51 49 53 66 69 63 62 61 53 50 52 84 80 84 89 88 85 88 82 83 88 85 84 84 80 76 77 77 78 78 74 66 66 68 69 66 65 65 68 71 74 72
84 35 23 17 20 43 45 80 64 59 61 57 51 51 54 60 72 74 78 76 78 80 80 84 88 82 81 78 77 79 77 77 77 74 69 69 64 67 71 68 71 72 74 74 76
28 22 19 12 14 29 38 44 72 61 58 60 52 52 52 52 51 53 57 57 64 69 79 83 84 81 81 82 81 80 78 79 77 77 73 69 62 65 68 75 75 76 73 78 77
26 13 11 12 8 21 39 43 77 64 60 60 52 50 50 51 51 52 53 57 64 70 73 80 80 80 83 81 80 83 84 79 78 78 76 70 64 68 72 78 79 78 76 77 77
19 17 8 2 12 30 42 56 78 63 64 57 57 52 53 52 51 52 55 59 68 70 73 77 78 83 85 84 83 80 79 78 79 74 70 70 67 59 73 82 83 80 87 85 84
12 20 15 10 19 33 57 78 78 72 63 57 53 52 53 50 52 53 51 57 62 69 72 75 73 78 81 78 81 81 82 80 78 74 64 66 68 45 81 82 83 85 86 88 86
27 23 12 6 16 36 75 83 76 65 51 43 54 54 52 53 53 54 55 59 65 67 68 70 72 72 73 75 77 78 82 81 78 73 65 67 72 31 42 50 84 83 46 46 88
31 12 9 9 17 29 84 82 71 63 49 46 54 55 52 53 53 53 56 56 55 56 59 61 63 65 67 69 71 74 75 72 67 69 72 70 71 74 79 83 85 78 80 90 91
20 15 10 7 12 26 83 76 64 52 46 44 50 54 52 49 49 51 53 55 54 53 55 57 60 61 64 65 65 67 67 70 69 70 72 67 69 65 63 20 74 77 79 89 91
12 10 9 7 16 54 79 74 58 46 43 41 50 51 51 51 48 50 51 50 49 49 49 49 45 45 46 48 50 53 57 62 63 61 61 60 54 62 73 28 65 48 61 67 82
14 14 10 8 19 61 72 66 59 48 44 42 49 52 53 51 50 47 45 43 42 41 38 41 41 43 46 46 46 49 51 52 51 51 47 41 50 60 32 23 23 74 71 51 28
21 14 4 17 43 67 77 63 57 49 48 43 47 51 51 48 46 42 40 37 36 34 35 33 36 40 39 39 38 35 37 38 37 40 42 41 48 61 59 63 54 62 55 49 25
20 13 4 23 56 65 69 57 57 50 48 44 43 48 49 48 42 38 35 34 24 27 28 30 31 33 30 24 21 26 32 37 41 39 43 50 54 49 44 48 52 37 38 58 67
16 6 15 37 57 70 63 56 57 52 48 43 39 46 46 47 39 36 34 26 21 21 23 24 26 22 15 21 32 34 36 34 36 42 28 27 32 27 30 35 34 36 46 59 33
7 14 22 50 57 65 59 7 57 52 45 43 39 42 42 43 39 36 33 32 27 23 23 23 21 23 20 21 21 32 27 34 26 28 29 20 19 12 26 23 23 34 40 51 15
16 28 34 60 12 58 55 57 54 46 45 42 38 38 41 41 41 36 34 31 28 24 24 23 19 20 17 18 24 27 28 31 26 15 14 9 9 16 9 18 21 29 31 42 7
24 39 37 49 53 51 51 51 48 44 43 42 39 36 42 44 42 38 34 31 29 27 25 21 20 17 18 23 24 26 27 14 17 17 4 5 2 5 20 22 26 18 25 31 40
Wind_Direction
306 271 265 236 234 240 237 236 232 229 232 234 235 233 232 230 231 234 235 235 237 238 239 241 243 244 245 247 248 250 246 240 247 251 251 248 241 248 239 251 246 248 252 238 253
301 285 263 252 235 237 234 240 234 229 229 232 233 235 234 231 229 230 234 236 236 238 238 238 241 245 245 244 246 248 249 250 249 252 252 247 248 243 245 247 246 248 253 246 252
292 291 269 258 242 236 237 236 236 231 228 230 233 233 234 233 232 232 232 233 236 236 238 238 240 241 245 243 246 245 248 249 249 249 249 250 248 247 254 252 248 249 252 253 256
292 278 274 262 255 242 234 237 238 238 230 228 229 232 232 232 231 233 233 233 233 236 239 240 241 243 243 244 242 244 248 249 253 247 249 251 252 250 249 250 252 253 239 253 256
297 283 274 271 250 247 245 239 240 235 232 230 227 229 231 230 230 232 232 234 235 236 236 237 239 242 242 243 245 244 242 246 248 251 251 252 249 249 253 250 251 251 253 246 256
301 295 277 264 266 245 244 243 236 237 233 231 230 226 229 231 230 230 232 233 233 235 237 238 239 240 241 244 245 247 248 245 250 249 252 255 256 256 258 255 253 252 251 253 253
301 287 284 277 259 257 251 241 239 239 232 228 229 227 227 227 229 231 231 232 233 234 238 239 240 240 243 240 242 240 244 244 246 248 252 252 254 257 255 254 249 251 255 250 252
302 303 296 283 274 259 251 252 238 239 236 229 228 226 227 227 230 230 229 230 230 233 234 237 239 239 241 241 241 242 244 244 246 246 248 251 253 251 252 252 248 249 250 250 252
309 302 295 287 280 265 251 244 242 235 237 233 230 225 228 228 229 230 231 231 230 230 233 235 238 238 239 241 242 243 245 244 245 245 247 249 251 255 253 253 250 248 248 250 254
316 308 295 288 265 256 255 244 245 239 234 234 228 228 225 228 229 230 231 229 229 230 230 233 236 238 240 242 244 246 247 246 242 244 245 245 249 253 255 254 254 251 249 252 253
320 310 296 284 264 253 237 243 237 234 234 234 224 225 226 226 228 231 231 231 228 226 228 230 234 237 239 241 243 245 246 248 246 241 243 242 246 253 255 255 256 256 255 252 248
323 308 297 300 259 241 230 228 230 233 230 229 219 219 221 225 230 233 232 228 225 223 225 228 231 235 238 240 242 244 244 246 247 242 242 242 244 249 253 257 252 255 255 255 255
311 311 306 311 263 220 213 206 224 225 228 228 213 215 213 213 216 220 221 220 218 223 222 226 231 234 236 238 241 244 245 246 247 247 245 247 245 248 252 252 255 257 249 255 254
320 310 300 280 195 215 195 188 213 215 222 223 209 210 208 210 212 214 216 214 217 221 223 225 231 234 237 240 242 245 246 247 249 250 250 250 247 248 250 251 253 254 256 257 257
335 328 318 344 189 195 181 169 207 207 216 215 205 203 206 208 210 212 215 215 217 220 224 228 230 233 237 239 241 243 246 248 249 250 251 254 254 249 252 251 255 255 256 256 256
335 331 339 217 203 181 167 181 200 204 212 209 200 200 205 205 210 213 214 217 219 222 224 228 232 232 235 239 240 244 246 249 251 251 250 253 255 246 247 251 258 255 254 256 259
328 325 330 230 224 180 170 189 198 203 205 204 195 202 202 203 207 210 213 217 221 224 227 230 233 234 236 238 241 243 245 248 252 254 257 254 256 250 261 257 257 253 258 260 259
333 314 291 248 226 192 180 190 195 199 195 200 195 200 201 203 207 212 216 219 221 223 224 227 231 234 237 238 239 241 245 251 255 257 257 257 265 262 263 261 260 261 263 261 259
328 299 291 272 242 201 174 188 193 195 191 198 197 198 204 203 209 211 216 219 221 223 227 230 233 237 240 243 244 246 249 252 253 256 260 262 263 264 262 250 267 268 267 267 266
334 335 311 243 201 177 179 189 191 193 192 195 194 196 203 205 207 212 216 221 220 225 227 232 227 232 236 240 243 246 250 253 257 261 263 265 266 264 266 252 271 261 265 271 271
0 341 327 199 182 174 182 188 188 190 192 195 194 198 202 206 209 211 215 214 220 224 223 224 225 229 233 238 243 248 254 260 265 266 269 255 262 266 232 241 252 277 279 279 276
359 0 60 152 162 153 180 186 181 185 191 196 195 200 205 207 211 210 210 213 217 222 222 224 228 234 238 242 247 256 260 263 266 250 258 259 276 277 281 278 280 280 277 288 276
5 4 104 146 155 160 180 182 182 187 191 194 196 199 204 206 206 208 204 212 217 217 220 223 228 233 237 245 247 248 241 249 256 273 283 285 280 279 271 277 282 328 303 314 311
5 17 138 149 163 173 178 178 180 189 193 192 196 199 203 204 200 200 203 207 200 203 208 212 220 224 216 226 229 240 249 265 280 286 277 276 268 275 278 272 304 326 330 327 282
53 124 152 154 163 173 176 180 182 189 190 191 194 199 203 203 197 198 203 208 211 190 196 209 215 222 228 241 258 250 278 284 285 284 280 282 277 255 267 301 329 333 337 340 335
106 141 147 161 311 173 177 179 183 186 190 192 193 198 201 202 199 200 205 209 215 215 221 224 227 237 255 269 271 281 286 288 289 277 269 274 260 266 345 8 352 350 357 1 13
131 135 141 160 176 176 180 181 185 186 190 194 196 196 201 204 200 201 206 210 213 217 223 230 238 242 261 254 276 287 288 289 283 289 273 288 323 3 15 17 4 308 11 24 21